Terminal Aerodrome Forecast
Issued by NWS Newport/Morehead City, NC

Home | Current Version | Previous Version | Text Only | Print | Product List | Glossary On
Versions: 1 2 3 4 5 6 7 8 9 10 11 12 13 14 15 16 17 18
000
FTUS42 KMHX 190553
TAFEWN
TAF
KEWN 190553Z 1906/2006 20003KT 4SM BR BKN090
     FM191400 09010KT P6SM VCSH SCT025 BKN040
     FM191700 14010KT 4SM -SHRA OVC025
     FM200000 14009KT 3SM SHRA OVC009=

USA.gov is the U.S. government's official web portal to all federal, state and local government web resources and services.